Погода Батамай

Погода Батамай : погода сейчас, прогноз погоды и архив. Всё, что Вы хотите узнать о погоде Батамай!

Поиск расширенной информации на нашем сайте:

Другие новости

Новости СМИ2

Главная страница сайта

Новости сайта

02.10.2013

Напоминаем, что на нашем новом сайте вы можете получить высокодетализированные прогнозы погоды по пунктам России, СНГ и мира (включающие важные для авиации метеовеличины, такие как направление и скорость ветра, видимость, явления погоды, количество и форма облачности, нижняя и верхняя граница облачности), а также ознакомиться с разнообразными материалами по авиационной метеорологии и подборкой полезных ссылок на эту тему.

Сайт Метеоцентр.Азия посвящён разработке технологий оптимизации авиаметеорологического обслуживания, включая проектирование и перспективное создание нескольких автоматизированных авиаметеорологических систем:
- система выпуска высокодетальных прогностических карт явлений погоды для нижнего воздушного пространства по России и ближнему зарубежью;
- система верификации прогнозов TAF (выпускаемых синоптиками официальных АМСГ РФ и ближнего зарубежья) и AUTOTAF (выпускаемых сайтом Метеоцентр.Азия) - выявление ошибок, онлайн-сопоставление с фактической погодой METAR, автоматическое внесение коррективов в прогнозы при резком отклонении фактической погоды от прогноза, подсчёт оправдываемости прогнозов по элементам и в целом;
- система обработки, анализа и отображения авиаметеорологической информации для применения провайдерами метеорологической информации.

Рекомендуем: отделка лоджии внутри

Погода Батамай - сегодня

Время (UTC), дата Ветер
(°,м/с) 
Видим.   Явления Облачность Т
(°С)
Тd
(°С)
f(%) Тe
(°С)
Pmin
(гПа)
dP
(гПа)
Po
(мм)
O2
(г/м3)
Тmin Tmax R s Состояние
почвы
21 23.04.17 220 (ЮЗ) 20000 м    10/0 верхняя 
[Cs]
-1.5 -4.4 81 -1  1022.5  0.7  759  308           
00 24.04.17 210 (ЮЗ) 20000 м    10/0 верхняя 
[Cs]
+0.8 -4.1 70 -1  1022.6  0.1  759  306  -1.6      неравномерный
мокрый или
старый снег
100% 
03 24.04.17 220 (ЮЗ) 20000 м    10/0 средняя, верхняя 
[Ac trans|Cs]
+4.1 -2.7 61 +4  1022.6  0.2  760  302           
06 24.04.17 210 (ЮЗ) 20000 м    10/0 средняя, верхняя 
[Ac trans|Cs]
+5.2 -1 64 +4  1022.5  -0.1  759  300           
09 24.04.17 220 (ЮЗ) 20000 м    10/3 600 м кучево-дожд., средняя, верхняя 
[Cb cap|Ac trans|Cs]
+4.9 -3 57 +4  1022.4  -0.1  759  301           
12 24.04.17 220 (ЮЗ) 20000 м    10/0 средняя, верхняя 
[Ac trans|Cs]
+2.2 -4.9 59 +2  1022.8  0.2  760  304    +5.5       
15 24.04.17 220 (ЮЗ) 20000 м    6/0 верхняя 
[Ci fib]
-0.6 -4.1 77 -1  1022.6  -0.2  759  307           
18 24.04.17 240 (ЮЗ) 20000 м    1/0 верхняя 
[Ci fib]
-0.9 -4.8 75 -4  1022.4  -0.2  759  307           
21 24.04.17 230 (ЮЗ) 20000 м    9/0 средняя, верхняя 
[Ac trans|Ci fib]
-1 -6 69 -2  1021.6  -0.8  759  307           
00 25.04.17 220 (ЮЗ) 20000 м    3/0 средняя, верхняя 
[Ac trans|Ci fib]
+1.2 -3.7 70 1021.2  -0.4  758  305  -2.7      мокрый или
старый снег
50-90% 
03 25.04.17 220 (ЮЗ) 20000 м    10/3 600 м средняя, верхняя 
[Cu hum|Ac trans|Ci fib]
+4.9 -2.7 58 +4  1020.4  -0.6  758  300           
06 25.04.17 230 (ЮЗ) 20000 м    10/6 600 м кучево-дожд., средняя, верхняя 
[Cb cap|Ac trans|Ci fib]
+4.8 -3.2 56 +4  1019.1  -1.3  757  300           
09 25.04.17 230 (ЮЗ) 20000 м    10/3 600 м кучево-дожд., средняя, верхняя 
[Cb cap|Ac trans|Ci fib]
+5 -3.3 55 +5  1018.2  -0.9  756  300           
12 25.04.17 240 (ЮЗ) 20000 м    4/0 средняя 
[Ac trans]
+0.6 -2.3 81 +1  1017.9  -0.5  756  304    +6.4       
15 25.04.17 220 (ЮЗ) 20000 м    ясно 
-1.4 -3.1 88 -2  1016.9  -1  755  306           
18 25.04.17 300 (СЗ) 20000 м    ясно 
-4.8 -5.1 98 -4  1015.8  -1.3  754  310           
21 25.04.17 220 (ЮЗ) 20000 м    ясно 
-4.5 -5.4 93 -4  1014.6  -1.1  753  309           
00 26.04.17 180 (Ю) 20000 м    ясно 
-2.8 -5.1 84 -2  1014.1  -0.5  753  307  -4.8      мокрый или
старый снег
10-40% 
03 26.04.17 150 (ЮВ) 20000 м    4/3 600 м кучево-дожд., верхняя 
[Cb cap|Ci fib]
+5 -4 52 +5  1010.2  -3.5  750  297           
06 26.04.17 180 (Ю) 20000 м    8/3 600 м кучево-дожд., верхняя 
[Cb cap|Ci fib]
+6.5 -6.1 40 +6  1007.9  -2.3  749  295           
09 26.04.17 150 (ЮВ) 20000 м    10/3 600 м кучево-дожд., верхняя 
[Cb cap|Cs]
+5.9 -6.3 41 +7  1006.5  -1.4  748  295           
12 26.04.17 030 (СВ) 20000 м    10/3 600 м кучево-дожд., верхняя 
[Cb cap|Cs]
+1.4 -9.1 45 +2  1006.3  -0.4  747  300    +6.9       
15 26.04.17 030 (СВ) 20000 м    5/0 средняя, верхняя 
[Ac trans|Ci fib]
-1.2 -5.9 70 -2  1005.2  -1.1  746  303           
18 26.04.17 020 (С) 20000 м    4/0 средняя 
[Ac trans]
-3.6 -7.6 74 -5  1004.4  -0.9  746  305           
21 26.04.17 030 (СВ) 20000 м    9/0 средняя, верхняя 
[Ac trans|Ci fib]
-1.2 -5.9 70 -2  1003.7  -0.5  745  302           
Время (UTC), дата Ветер
(°,м/с) 
Видим.   Явления Облачность Т
(°С)
Тd
(°С)
f(%) Тe
(°С)
Pmin
(гПа)
dP
(гПа)
Po
(мм)
O2
(г/м3)
Тmin Tmax R s Состояние
почвы

Для получения пояснительной информации подведите курсор к названию столбца.

ПОГОДА Батамай - архив

Всё, что Вы хотите узнать о погоде Батамай - удобно и подробно!

Выберите нужную дату (начиная с 1 января 2015* года) и нажмите кнопку "Найти".
Будут отображены архивные сводки погоды по пункту Батамай, начиная с указанной даты.


Отображать данные в формате CSV (для использования в таблицах Excel)


Внимание! Наш архив погоды предназначен исключительно для личного некоммерческого использования в познавательных целях. Если Вам необходимы официальные справки о состоянии погоды (для производственных, юридических, коммерческих и т.п. целей), обращайтесь в органы Росгидромета.

*Примечание: данная дата относится к архиву по метеостанциям СССР (Россия, СНГ, Балтия).
Архив по метеостанциям Зарубежной Европы и Азии (кроме Китая) хранится 10 дней, по другим регионам земного шара (Китай, Африка, Америка, Австралия, Океания) - 1 день.

Батамай - район местоположения метеостанции


Название, широта, долгота, высота метеостанции:
Батамай 63.5°ш. 129.5°д. 79 м над ур. моря [Российская Федерация]

Дополнительная информация

В oтличие oт бoльшинства пoгoдных сайтoв мы публикуем пoдрoбную метеoинфoрмацию в детальнoм прoфессиoнальнoм фoрмате.

Характеристики температуры и влажнoсти вoздуха измеряются на высoте 2 м в тени вдали oт зданий и деревьев.
Скoрoсть ветра измеряется на высoте 10 м (на урoвне рoста челoвека скoрoсть ветра ниже в 1.5-2 раза). Если метеoстанция нахoдится в гoрoде или в лесу, тo скoрoсть ветра занижена на 2-4 м/с пo сравнению с oткрытым местoм. Скoрoсть ветра над акватoриями крупных рек и oзёр, а также на вершинах хoлмoв на 2-5 м/с выше, чем в oбычных услoвиях.
Атмoсфернoе давление в разных тoчках местнoсти мoжет значительнo oтличаться oт давления на метеoстанции, в зависимoсти oт услoвий рельефа (при пoдъёме на 10 м давление пoнижается примернo на 1 мм рт.ст.).